MAKIL Weather Reports


time (UTC)temp
C
wind
direction
speed
KPH
gust
KPH
rain 1hr
cm
rain 24hr
cm
rain mn
cm
humidity
%
barometer
mb
20260906050455 11 338 40.2 49.9 0.00 0.00 0.00 79
20260906044124 11 333 35.4 45.1 0.00 0.00 0.00 82
20260906042124 11 330 32.2 40.2 0.00 0.00 0.00 85
20260906040454 10 332 35.4 43.5 0.00 0.00 0.00 87
20260906034454 10 335 38.6 48.3 0.00 0.00 0.00 88
20260906024454 10 330 37.0 43.5 0.00 0.00 0.00 89
20260906022455 10 329 35.4 41.8 0.00 0.00 0.00 90
20260906020454 10 336 37.0 43.5 0.00 0.00 0.00 90
20260906014455 10 337 37.0 45.1 0.00 0.00 0.00 89
20260906012454 10 335 37.0 45.1 0.00 0.00 0.00 89
20260906010455 10 336 38.6 45.1 0.00 0.00 0.00 89
20260906004455 11 333 37.0 45.1 0.00 0.00 0.00 88
20260906002454 11 342 35.4 45.1 0.00 0.00 0.00 88
20260906000455 11 337 33.8 41.8 0.00 0.00 0.00 86
20260905234453 11 340 33.8 40.2 0.00 0.00 0.00 86
20260905232453 12 344 30.6 40.2 0.00 0.00 0.00 87
20260905230453 12 345 33.8 40.2 0.00 0.00 0.00 86
20260905222453 12 347 27.4 35.4 0.00 0.00 0.00 87
20260905220453 12 351 25.7 33.8 0.00 0.00 0.00 84
20260905214453 12 345 27.4 33.8 0.00 0.00 0.00 86
20260905212454 12 343 29.0 35.4 0.00 0.00 0.00 84
20260905210453 13 338 29.0 32.2 0.00 0.00 0.00 84
20260905204453 13 339 27.4 32.2 0.00 0.00 0.00 83
20260905202453 13 338 29.0 37.0 0.00 0.00 0.00 82
20260905200454 14 335 25.7 32.2 0.00 0.00 0.00 82
20260905192122 15 313 24.1 29.0 0.00 0.00 0.00 79
20260905190452 14 309 22.5 24.1 0.00 0.00 0.00 80
20260905184454 14 309 19.3 24.1 0.00 0.00 0.00 82
20260905182451 13 312 16.1 19.3 0.00 0.00 0.00 84
20260905180450 14 325 14.5 17.7 0.00 0.00 0.00 80
20260905174450 14 337 17.7 20.9 0.00 0.00 0.00 75
20260905170452 15 299 12.9 17.7 0.00 0.00 0.00 77
20260905164453 16 319 9.7 11.3 0.00 0.00 0.00 71
20260905162123 16 337 9.7 12.9 0.00 0.00 0.00 75
20260905154452 16 276 20.9 27.4 0.00 0.00 0.00 75
20260905152453 16 271 25.7 30.6 0.00 0.00 0.00 78
20260905150451 16 263 30.6 35.4 0.00 0.00 0.00 78
20260905144452 16 258 33.8 40.2 0.00 0.00 0.00 79
20260905130455 17 252 27.4 30.6 0.00 0.00 0.00 67
20260905124451 18 251 24.1 29.0 0.00 0.00 0.00 67
20260905122121 18 248 22.5 29.0 0.00 0.00 0.00 65
20260905120451 18 249 22.5 27.4 0.00 0.00 0.00 66
20260905114451 18 251 20.9 24.1 0.00 0.00 0.00 66
20260905112453 18 249 12.9 17.7 0.00 0.00 0.00 62
20260905104451 17 259 12.9 16.1 0.00 0.00 0.00 69
20260905102451 17 274 11.3 12.9 0.00 0.00 0.00 67
20260905100451 16 286 12.9 14.5 0.00 0.00 0.00 72
20260905094450 17 290 11.3 14.5 0.00 0.00 0.00 71
20260905092450 15 294 11.3 14.5 0.00 0.00 0.00 74
20260905090452 16 302 12.9 14.5 0.00 0.00 0.00 73
20260905084451 16 304 11.3 14.5 0.00 0.00 0.00 70
20260905082453 15 316 12.9 16.1 0.00 0.00 0.00 78
20260905080449 15 313 14.5 16.1 0.00 0.00 0.00 77
20260905074120 16 319 12.9 14.5 0.00 0.00 0.00 76
20260905072449 16 307 9.7 12.9 0.00 0.00 0.00 79
20260905070453 15 303 9.7 12.9 0.00 0.00 0.00 79
20260905064449 15 304 8.0 9.7 0.00 0.00 0.00 83
20260905062449 14 316 9.7 12.9 0.00 0.00 0.00 86
20260905060450 13 334 8.0 9.7 0.00 0.00 0.00 87
20260905052449 13 332 8.0 9.7 0.00 0.00 0.00 92